Лапри

Россия / Амурская область     55°45′13″N   124°43′34″E
темп.,
°C
ветер,
м/с
пор.,
м/с
влажн.,
%
обл.,
%
осадки,
мм/ч
давл.,
гПа
погр.,
м
16 мая, вс
вс1600:00+1сз32780 0.0 100234
03:00−1зсз22760 0.0 100321
06:00+2зсз22660 0.0 100153
09:00+9сз23400 0.0 9981007
12:00+12зсз23345 0.0 9961970
15:00+13зюз3530100 0.0 9942903
18:00+6зюз0384100 1.3 996424
21:00+3ссз359690 2.2 997248
17 мая, пн
пн1700:000з229290 0.1 100036
03:00−2зсз119085 0.1 100015
06:00−1ссз3977100 0.0 1001938
09:00+1ссз4746100 0.0 10021543
12:00+3ссз5733100 0.0 10022438
15:00+4сз4540100 0.1 10022197
18:00+3ссв234166 0.2 10021433
21:00−1св255556 0.2 1004118
18 мая, вт
вт1800:00−4ссв2259100 0.0 100629
03:00−3ссв2258100 0.0 100569
06:00−2ссв4753100 0.4 1004822
09:00−2св4650100 1.2 10041241
12:00−1св4653100 0.6 10041421
15:000ссв4656100 0.9 10041610
18:00+2с453315 0.1 10032092
21:00−4с225231 0.1 100615
19 мая, ср
ср1900:00−6ссз115992 0.0 100710
03:00−7с116112 0.0 100710
06:00−3всв014795 0.0 100757
09:00+1ю2339100 0.0 10051016
12:00+2юв346293 0.5 10051177
15:00+3ю2355100 0.8 10031492
18:00+3ююв2366100 0.1 1003844
21:00−1всв1193100 0.1 100410
20 мая, чт
чт2000:00−1вюв1299100 1.4 1004117
03:00−1юв1399100 3.1 1003213
06:00−1юз1297100 1.4 1003164
09:00+2зсз3581100 2.4 1003832
12:00+3ссз786099 0.6 10051806
15:00+5ссз684891 0.6 10062283
18:00+5ссз47485 0.0 10081747
21:00−4зсз22924 0.0 101311